Location: Bun
(42.9667°N, 0.1500°W)
Time: 04:36:38
(UTC+00:00)

Cosmos 841 Rocket - Pass Details

Date: 03 February 2023
Orbit: 746 x 771 km, 74.0° (Epoch: 26 March)

Event Time Altitude Azimuth Distance (km) Brightness Sun altitude
Rises 18:30:22 0° 345° (NNW) 3,255 6.8 -14.0°
Reaches altitude 10° 18:32:54 10° 353° (N) 2,323 6.0 -14.4°
Maximum altitude 18:37:53 41° 63° (ENE) 1,113 3.9 -15.3°
Enters shadow 18:42:22 12° 131° (SE) 2,150 5.4 -16.1°
